Regional Weather Roundup
Issued by NWS

Home | Current Version | Previous Version | Text Only | Print | Product List | Glossary Off
Versions: 1 2 3 4 5 6 7 8 9 10 11 12 13 14 15 16 17 18 19 20 21 22 23 24 25 26 27 28 29 30 31 32 33 34 35 36 37 38 39 40 41 42 43 44 45 46 47 48 49 50

000
ASUS43 KDTX 210910
RWRMI
MICHIGAN HOURLY REGIONAL WEATHER ROUNDUP
NATIONAL WEATHER SERVICE DETROIT/PONTIAC MI
500 AM EDT SAT OCT 21 2017

NOTE: "FAIR" INDICATES FEW OR NO CLOUDS BELOW 12,000 FEET WITH NO
SIGNIFICANT WEATHER AND/OR OBSTRUCTION TO VISIBILITY.

MIZ047>049-052>055-059>063-066>070-074>076-081>083-211000-
SOUTHEAST LOWER MICHIGAN

CITY           SKY/WX    TMP DP  RH WIND       PRES   REMARKS
ADRIAN         PTCLDY    49  47  93 CALM      30.19R FOG
ALMA           CLOUDY    54  49  83 S10       30.13S
ANN ARBOR      CLOUDY    42  42 100 CALM      30.18R FOG
BAD AXE        PTCLDY    54  47  77 S7        30.15S
CARO           CLOUDY    54  47  80 CALM      30.14S
DETROIT CITY   PTCLDY    53  47  79 CALM      30.18R
DETROIT        CLOUDY    52  47  83 CALM      30.19R
FLINT          CLOUDY    58  49  72 S5        30.15S
GROSSE ILE     PTCLDY    57  53  86 S7        30.18R
HILLSDALE      PTCLDY    54  48  82 S6        30.16S
HOWELL         PTCLDY    53  49  86 SE3       30.16S

CITY           SKY/WX    TMP DP  RH WIND       PRES   REMARKS
JACKSON        CLOUDY    55  48  77 CALM      30.16S
LAMBERTVILLE   MOCLDY    51  46  85 CALM      30.18S
LANSING        CLOUDY    55  48  77 S5        30.14F
LAPEER         FAIR      46  45  96 CALM      30.17R
MASON          PTCLDY    55  49  81 S5        30.15S
MONROE         PTCLDY    48  45  89 CALM      30.18R
MT. CLEMENS    PTCLDY    48  48 100 CALM      30.16S
PONTIAC        CLOUDY    50  47  89 S3        30.17R
PORT HOPE        N/A     60  48  64 VRB5      30.11S
PORT HURON     MOCLDY    46  43  87 CALM      30.18R
TRI CITIES     CLOUDY    57  51  80 S8        30.13S
MIDLAND        FAIR      55  50  84 CALM      30.12S
TROY           CLOUDY    51  47  85 SW3       30.19S
SAGINAW HB     PTCLDY    54  48  82 S5        30.13S
$$
MIZ043>046-050>051-056>058-064>065-071>073-077>080-211000-
SOUTHWEST LOWER MICHIGAN

CITY           SKY/WX    TMP DP  RH WIND       PRES   REMARKS
BATTLE CREEK   CLOUDY    55  49  80 S6        30.14S
BENTON HARBOR  MOCLDY    59  48  67 S6        30.10R
BIG RAPIDS     CLOUDY    52  48  89 SE6       30.10S
COLDWATER      CLOUDY    55  49  80 CALM      30.15S
FREMONT        FAIR      56  49  77 S3        30.09R
HOLLAND        PTCLDY    54  48  80 S6        30.10S
GRAND RAPIDS   PTCLDY    54  50  86 S7        30.11S
IONIA          FAIR      53  48  81 S3        30.12S
KALAMAZOO      CLOUDY    57  47  69 S5        30.13S
LUDINGTON      MOCLDY    64  50  60 S10       30.04F
MARSHALL       CLOUDY    57  48  72 S3        30.14S
MOUNT PLEASANT PTCLDY    50  47  90 CALM      30.11S
MUSKEGON       MOCLDY    63  51  65 S12       30.08F
SOUTH HAVEN    CLOUDY    61  48  63 S6        30.10S
$$
MIZ016>042-211000-
NORTHERN LOWER MICHIGAN

CITY           SKY/WX    TMP DP  RH WIND       PRES   REMARKS
ALPENA         PTCLDY    46  44  93 CALM      30.08S
BEAVER ISLAND  CLOUDY    65  50  58 S8        30.01F
BELLAIRE       MOCLDY    48  46  95 CALM      30.06S
CADILLAC       CLOUDY    56  47  72 S5        30.08S
CHARLEVOIX     PTCLDY    64  49  58 S7        30.06S
FRANKFORT      CLOUDY    66  49  54 S8        30.04R
GAYLORD        CLOUDY    56  47  71 SW7       30.08F
GRAYLING       CLOUDY    44  40  88 CALM      30.10F
HARBOR SPRINGS CLOUDY    62  47  58 SW8       30.05R
HOUGHTON LAKE  PTCLDY    47  45  93 CALM      30.11S
MANISTEE       CLOUDY    52  49  89 E5        30.05S
OSCODA         CLOUDY    54  51  89 SW8       30.10S
PELLSTON       PTCLDY    65  48  54 SW6       30.05S
ROGERS CITY    CLOUDY    59  49  70 SW9       30.06S
TRAVERSE CITY  CLOUDY    65  48  54 VRB7      30.03S
$$
MIZ007>008-015-211000-
EASTERN UPPER MICHIGAN

CITY           SKY/WX    TMP DP  RH WIND       PRES   REMARKS
KINROSS        CLOUDY    51  48  89 SE6       30.04R
MACKINAC ISLAN CLOUDY    63  49  60 S8        30.04R
NEWBERRY       CLOUDY    59  55  87 S13       29.99F
S. S. MARIE    CLEAR     51  49  92 E3        30.04R
MUNISING         N/A     63  51  65 S9G17     29.91F
$$
MIZ004>006-011>014-085-211000-
CENTRAL UPPER MICHIGAN

CITY           SKY/WX    TMP DP  RH WIND       PRES   REMARKS
MANISTIQUE     CLOUDY    57  51  81 S5        29.98F
ESCANABA       CLOUDY    59  54  83 S7        29.94S
MENOMINEE      CLOUDY    62  49  62 SW7       29.95F
SAWYER-GWINN   CLOUDY    56  49  78 S14       29.92S
$$
MIZ001>003-009>011-084-211000-
WESTERN UPPER MICHIGAN

CITY           SKY/WX    TMP DP  RH WIND       PRES   REMARKS
IRON MOUNTAIN  PTCLDY    58  46  64 SE7       29.91F
HOUGHTON       MOCLDY    62  43  49 S5        29.83S
COPPER HARBOR    N/A     62  45  53 CALM      29.83S
IRONWOOD       PTCLDY    64  44  48 S10G23    29.79F
$$

ABBREVIATIONS USED IN REMARKS
   TC - TEMPERATURE IN CELSIUS
  WCI - WIND CHILL INDEX
   HX - HEAT INDEX
  VSB - VISIBILITY




USA.gov is the U.S. government's official web portal to all federal, state and local government web resources and services.